Location: Central Coast
(33.3208°S, 151.2336°E)
Time: 17:19:31
(UTC+11:00)

N. Korean satellite - Pass Details

Date: 12 October 2017
Orbit: 461 x 513 km, 97.2° (Epoch: 13 December)

Event Time Altitude Azimuth Distance (km) Brightness Sun altitude
Rises 20:41:54 0° 192° (SSW) 2,666 10.8 -20.1°
Reaches altitude 10° 20:44:51 10° 217° (SW) 1,766 10.3 -20.6°
Maximum altitude 20:46:51 14° 249° (WSW) 1,519 10.1 -21.0°
Drops below altitude 10° 20:48:51 10° 281° (W) 1,746 10.1 -21.4°
Sets 20:51:45 0° 307° (NW) 2,613 10.6 -21.9°
